Flag for Italy Weather past 2 weeks in Trieste, Italy

Now
69 °F

Sunny.


Feels Like: 69 °F
Forecast: 47 / 73 °F
Wind: 2 mph from West

Location: Trieste

Current Time: May 28, 2015 at 1:00:47 PM

Latest Report: May 28, 2015 at 12:00 PM


Visibility: 13 mi

Pressure: 30.08 "Hg

Humidity: 44%

Dew point: 46 °F

Location of TriesteLocation

Historic Weather in Trieste — Graph

°F

Trieste temperature yesterday

Maximum temperature yesterday: 72 °F (at 2:00 PM)
Minimum temperature yesterday: 61 °F (at 2:00 AM)
Average temperature yesterday: 65 °F

Past Weeks' High & Low Weather Summary

 TemperatureHumidityPressure
High83 °F (May 18, 3:00 PM)95% (May 20, 10:00 PM)30.13 "Hg (May 20, 10:00 PM)
Low55 °F (May 23, 9:00 AM)27% (May 27, 6:00 PM)29.72 "Hg (May 15, 9:00 AM)
Average66 °F64%29.89 "Hg
* Reported May 13 11:00 AM — May 28 11:00 AM, Trieste, Weather by CustomWeather, © 2015

Note: Actual official high and low records may vary slightly from our data, if they occured in-between our weather recording intervals... More about our weather records

Advertising

Trieste weather history for previous 24 hours

 ConditionsComfort  
Time TempWeatherWind HumidityBarometerVisibility
11:00 AM
Thu, May 28
67 °FSunny.1 mph42%30.09 "Hg12 mi
10:00 AM65 °FScattered clouds.2 mph46%30.09 "Hg12 mi
9:00 AM64 °FPassing clouds.No wind45%30.09 "Hg12 mi
8:00 AM59 °FSunny.No wind51%30.07 "Hg12 mi
7:00 AM56 °FSunny.No wind52%30.04 "Hg12 mi
12:00 AM61 °FPassing clouds.3 mph37%30.05 "Hg12 mi
10:00 PM
Wed, May 27
62 °FPassing clouds.5 mph34%30.03 "Hg12 mi
9:00 PM62 °FPassing clouds.2 mph36%30.00 "Hg12 mi
8:00 PM65 °FScattered clouds.5 mph32%29.98 "Hg12 mi
7:00 PM67 °FPartly sunny.2 mph30%29.98 "Hg12 mi
6:00 PM68 °FPartly sunny.2 mph27%29.98 "Hg12 mi
5:00 PM68 °FPartly sunny.6 mph32%29.97 "Hg12 mi
4:00 PM71 °FScattered clouds.3 mph32%29.96 "Hg12 mi
3:00 PM71 °FPartly sunny.6 mph32%29.97 "Hg12 mi
2:00 PM72 °FPartly sunny.5 mph32%29.96 "Hg12 mi
1:00 PM71 °FScattered clouds.6 mph32%29.96 "Hg12 mi
Weather by CustomWeather, © 2015

See weather overviewHow to use our weather pages